Simultaneous Nadir Overpasses (SNOs) Predictions

Prediction of SNOs between GOES-17 and AQUA Satellite Orbit:

Table of predicted SNOs for the next 14.0 days since TLE Epoch: 3/12/2021
Index Date Time (GOES-17) GOES-17 Lat,Lon AQUA Lat,Lon Distance(km) Time Diff (sec)
1 03/14/2021 10:30:40 -0.04,-137.20 -0.68,-134.20 341.54 80
2 03/14/2021 22:52:04 0.04,-137.21 -0.42,-139.39 248.24 80
3 03/16/2021 22:42:33 0.04,-137.20 0.23,-136.44 86.79 80
4 03/18/2021 22:30:21 0.04,-137.18 0.82,-133.48 421.04 80
5 03/19/2021 10:51:37 -0.04,-137.17 0.26,-138.64 166.52 80
6 03/21/2021 10:36:45 -0.03,-137.14 -0.34,-135.67 166.84 80
7 03/21/2021 22:58:09 0.03,-137.14 -0.76,-140.87 423.76 80
8 03/23/2021 10:24:33 -0.03,-137.11 -0.95,-132.71 499.50 80
9 03/23/2021 22:45:57 0.02,-137.10 -0.15,-137.90 91.22 80
10 03/25/2021 22:36:25 0.01,-137.06 0.46,-134.94 240.78 80
11 03/26/2021 10:57:40 -0.01,-137.05 0.62,-140.10 347.14 80
